Regional Weather Roundup
Issued by NWS

Home | Current Version | Previous Version | Text Only | Print | Product List | Glossary On
Versions: 1 2 3 4 5 6 7 8 9 10 11 12 13 14 15 16 17 18 19 20 21 22 23 24 25 26 27 28 29 30 31 32 33 34 35 36 37 38 39 40 41 42 43 44 45 46 47 48 49 50
512
ASUS43 KLSX 281607
RWRMO

WEATHER SUMMARY FOR MISSOURI
NATIONAL WEATHER SERVICE SPRINGFIELD MO
1000 AM CST TUE FEB 28 2017

NOTE: "FAIR" INDICATES FEW OR NO CLOUDS BELOW 12,000 FEET WITH NO
       SIGNIFICANT WEATHER AND/OR OBSTRUCTIONS TO VISIBILITY.
       CURRENT SKY AND/OR WEATHER CONDITIONS ARE NOT AVAILABLE FOR
       CHILLICOTHE AND FARMINGTON.

MOZ001>031-035>038-043-044-053-054-281700-
...NORTHERN AND WESTERN MISSOURI...

CITY           SKY/WX    TMP DP  RH WIND       PRES   REMARKS
KANSAS CTY INT CLOUDY    66  58  75 SW16G28   29.65F
KANSAS C DTWN  CLOUDY    67  57  70 SW18G24   29.66F
LEE`S SUMMIT   CLOUDY    66  58  75 S13G23    29.67F
ST JOSEPH      PTSUNNY   66  60  81 SW17      29.63F
CHILLICOTHE      N/A     65  58  78 S14G25    29.67F
KIRKSVILLE     CLOUDY    66  57  72 SW21G32   29.69F

$$
MOZ066>068-077>081-088>096-101>105-281700-
...SOUTHWEST MISSOURI...

CITY           SKY/WX    TMP DP  RH WIND       PRES   REMARKS
SPRINGFIELD    CLOUDY    68  60  75 SW22G36   29.81S
JOPLIN         CLOUDY    70  62  76 SW21G33   29.78S
BRANSON        CLOUDY    68  59  73 S14G23    29.87S

$$
MOZ032>034-039>042-045>050-055>058-069>072-281700-
...CENTRAL MISSOURI...

CITY           SKY/WX    TMP DP  RH WIND       PRES   REMARKS
COLUMBIA       PTSUNNY   66  59  78 S14       29.76F
JEFFERSON CITY CLOUDY    67  58  72 S14       29.77F
ROLLA          CLOUDY    66  59  78 S16G26    29.80F
SEDALIA        CLOUDY    70  60  70 S18       29.73F
WARRENSBURG    CLOUDY    68  57  68 S24       29.69F
OSAGE BEACH    CLOUDY    68  59  73 S10       29.79S

$$
MOZ051-052-059>065-281700-
...EAST CENTRAL MISSOURI...

CITY           SKY/WX    TMP DP  RH WIND       PRES   REMARKS
ST LOUIS INTL  CLOUDY    66  57  72 S13       29.81F
SPIRIT OF STL  CLOUDY    65  59  81 SW10      29.81F
ST CHARLES     CLOUDY    63  59  87 S12       29.81F

$$
MOZ072>076-082>087-097>100-106>115-281700-
...SOUTH CENTRAL AND SOUTHEAST MISSOURI...

CITY           SKY/WX    TMP DP  RH WIND       PRES   REMARKS
CAPE GIRARDEAU LGT RAIN  62  60  93 S18       29.92F FOG
FARMINGTON     CLOUDY    60  58  92 S12       29.90S
POPLAR BLUFF   CLOUDY    63  62  97 S10       29.92S FOG
WEST PLAINS    CLOUDY    65  60  84 S14G21    29.89F

$$



USA.gov is the U.S. government's official web portal to all federal, state and local government web resources and services.